Regional Weather Roundup
Issued by NWS

Home | Current Version | Previous Version | Graphics & Text | Print | Product List | Glossary On
Versions: 1 2 3 4 5 6 7 8 9 10 11 12 13 14 15 16 17 18 19 20 21 22 23 24 25 26 27 28 29 30 31 32 33 34 35 36 37 38 39 40 41 42 43 44 45 46 47 48 49 50
000
ASUS43 KMPX 030510
RWRMN
WEATHER ROUNDUP FOR MINNESOTA
NATIONAL WEATHER SERVICE TWIN CITIES/CHANHASSEN MN
1200 AM CDT MON AUG 03 2015


NOTE: "FAIR" INDICATES FEW OR NO CLOUDS BELOW 12,000 FEET WITH NO
SIGNIFICANT WEATHER AND/OR OBSTRUCTIONS TO VISIBILITY. N/A MEANS
CURRENT SKY AND/OR WEATHER CONDITIONS ARE NOT AVAILABLE.

MNZ060>063-068>070-030600-
   Twin Cities Metro

CITY           SKY/WX    TMP DP  RH WIND       PRES   REMARKS
TWIN CITIES    CLEAR     67  51  56 NW8       29.85R
ST PAUL        FAIR      68  50  52 NW10      29.84R
CRYSTAL        CLEAR     67  52  58 NW8       29.84R
BLAINE         CLEAR     66  52  59 NW7       29.84R
LAKEVILLE      CLEAR     63  54  72 W3        29.86R
EDEN PRAIRIE   CLEAR     68  52  56 NW7       29.84R
SOUTH ST PAUL  CLEAR     69  48  47 NW6       29.84R
LAKE ELMO      FAIR      63  52  67 NW3       29.85R
$$
MNZ001>005-007-008-013>017-022>024-027-028-030600-
   Northwest Minnesota

CITY           SKY/WX    TMP DP  RH WIND       PRES   REMARKS
BEMIDJI        CLEAR     56  46  69 W6        29.84R
HALLOCK        PTCLDY    55  48  76 NW6       29.85S
ROSEAU         MOCLDY    57  48  72 W8        29.82S
WARROAD        CLOUDY    61  46  59 W6        29.81S
THIEF RVR FALL CLEAR     55  48  76 NW5       29.85S
CROOKSTON      CLEAR     54  50  87 NW3       29.86S
FOSSTON        CLEAR     52  46  82 CALM      29.86S
DETROIT LAKES  CLEAR     63  50  63 NW8       29.88R
MOORHEAD       CLEAR     57  52  82 NW8       29.88S
PARK RAPIDS    PTCLDY    55  49  80 CALM      29.85R
MAHNOMEN       FAIR      56  52  87 NW5       29.86R
$$
MNZ006-009>011-018-025>026-030600-
   North Central Minnesota

CITY           SKY/WX    TMP DP  RH WIND       PRES   REMARKS
BAUDETTE       CLOUDY    60  46  59 W8        29.78S
FLAG ISLAND    CLOUDY    64  52  63 NW17G23   29.77S
INTL FALLS     MOCLDY    58  49  72 W6        29.75S
WASKISH        CLEAR     63  48  59 W10G16    29.80S
BIG FORK       CLEAR     55  45  67 CALM      29.79S
LONGVILLE      CLEAR     57  50  77 CALM      29.83R
GRAND RAPIDS   CLEAR     61  43  51 NW9       29.80S
CRANE LAKE     CLOUDY    59  50  72 SW1       29.76S
ORR            CLOUDY    63  46  55 W6        29.74S
COOK           CLOUDY    59  48  67 CALM      29.77S
WALKER         FAIR      52  47  86 W3        29.84R
$$
MNZ012-019>021-037-030600-
   Northeast Minnesota

CITY           SKY/WX    TMP DP  RH WIND       PRES   REMARKS
DULUTH         MOCLDY    63  48  58 W6        29.77R
ELY            CLOUDY    57  48  72 CALM      29.75S
HIBBING        CLEAR     61  44  53 W6        29.78R
EVELETH        MOCLDY    63  45  51 W7        29.78R
DULUTH HARBOR  CLOUDY    66  54  63 W9        29.76S
TWO HARBORS    PTCLDY    59  52  77 CALM      29.73S
SILVER BAY     CLEAR     52  46  82 CALM      29.73R
GRAND MARAIS     N/A     61  47  59 VRB5      29.68R
G MARAIS ARPRT CLEAR     55  45  67 NW6       29.71S
$$
MNZ029>031-032-039>041-046>048-054>057-064-030600-
   West Central Minnesota

CITY           SKY/WX    TMP DP  RH WIND       PRES   REMARKS
FERGUS FALLS   CLEAR     57  50  77 NW3       29.88S
WHEATON        CLEAR     57  52  82 W5        29.91S
MORRIS         CLEAR     57  52  82 W5        29.89S
ALEXANDRIA     CLEAR     58  52  80 W7        29.90R
ELBOW LAKE     FAIR      59  49  69 W3        29.88S
WADENA         CLEAR     55  48  76 W5        29.86R
GLENWOOD       CLEAR     57  52  82 W7        29.90S
APPLETON       CLEAR     61  52  72 CALM      29.90S
BENSON         CLEAR     57  52  82 NW3       29.90S
ORTONVILLE     CLEAR     63  55  77 W3        29.91S
MADISON        CLEAR     59  55  88 CALM      29.91S
WILLMAR        FAIR      61  55  82 W6        29.91R
$$
MNZ033>034-036-042>043-049>051-058-059-030600-
   Central Minnesota

CITY           SKY/WX    TMP DP  RH WIND       PRES   REMARKS
ST CLOUD       CLEAR     58  50  75 W6        29.86R
SAUK CENTRE    FAIR      55  52  89 CALM      29.88S
PAYNESVILLE    CLEAR     52  51  95 SW5       29.89S
AITKIN         CLEAR     57  48  72 W3        29.81S
PINE RIVER     CLEAR     57  48  72 CALM      29.87S
BRAINERD       CLEAR     60  50  69 W7        29.84R
STAPLES        CLEAR     55  46  71 W5        29.85S
LONG PRAIRIE   FAIR      57  50  77 SW5       29.88S
LITTLE FALLS   CLEAR     54  46  76 CALM      29.86S
LITCHFIELD     CLEAR     64  55  72 W5        29.89R
BUFFALO        CLEAR     64  51  61 NW5       29.87R
MAPLE LAKE     CLEAR     63  52  67 NW5       29.88R
$$
MNZ037-044-045-052-053-030600-
   East Central Minnesota

CITY           SKY/WX    TMP DP  RH WIND       PRES   REMARKS
PRINCETON      CLEAR     61  52  72 W3        29.85S
MORA           CLEAR     55  48  76 W5        29.85R
CAMBRIDGE      CLEAR     63  50  63 W6        29.83R
RUSH CITY      PTCLDY    58  51  76 W3        29.83R
MOOSE LAKE     CLEAR     52  48  87 W5        29.80R
HINCKLEY       FAIR      57  50  77 W5        29.82R
CLOQUET        CLEAR     61  45  55 W8        29.79R
MCGREGOR       CLEAR     61  46  59 W5        29.82R
$$
MNZ071>073-080-081-089-090-097-098-030600-
   Southwest Minnesota

CITY           SKY/WX    TMP DP  RH WIND       PRES   REMARKS
MONTEVIDEO     CLEAR     61  50  67 N6        29.92S
GRANITE FALLS  CLEAR     58  54  88 W6        29.92R
CANBY          CLEAR     60  56  85 W5        29.93S
MARSHALL       CLEAR     61  54  77 NW6       29.93R
REDWOOD FALLS  CLEAR     67  55  65 NW9       29.89R
OLIVIA         CLEAR     57  52  82 NW6       29.89S
PIPESTONE      CLEAR     64  57  77 CALM      29.94R
WINDOM         CLEAR     63  57  82 CALM      29.91R
WORTHINGTON    CLEAR     61  54  77 NW5       29.93R
JACKSON        CLEAR     63  57  82 NW7       29.92R
TRACY          CLEAR     64  57  77 NW6       29.92S
SLAYTON        CLEAR     60  58  92 CALM      29.94S
$$
MNZ065>067-074>077-082>085-091>093-030600-
   South Central Minnesota

CITY           SKY/WX    TMP DP  RH WIND       PRES   REMARKS
MANKATO        CLEAR     64  54  68 CALM      29.88R
NEW ULM        FAIR      61  55  82 W5        29.89R
ST JAMES         N/A     63  57  82 NW3       29.90R
FAIRMONT       CLEAR     63  54  72 NW7       29.90R
GLENCOE        CLEAR     64  57  79 NW7       29.88R
FARIBAULT      CLEAR     61  55  82 W5        29.87R
OWATONNA       CLEAR     59  54  82 W3        29.88R
WASECA         CLEAR     59  55  88 CALM      29.89S
ALBERT LEA     CLEAR     66  55  68 NW5       29.88R
$$
MNZ078>079-086>088-094>096-030600-
   Southeast Minnesota

CITY           SKY/WX    TMP DP  RH WIND       PRES   REMARKS
ROCHESTER      CLEAR     63  57  81 NW9       29.87R
RED WING       CLEAR     63  55  77 CALM      29.83R
STANTON        CLEAR     62  55  77 SW3       29.84R
DODGE CENTER   CLEAR     64  54  68 NW8       29.87R
WINONA         CLOUDY    73  59  60 N8        29.82R
AUSTIN         CLEAR     66  55  68 NW8       29.86R
PRESTON        CLEAR     64  57  77 NW10      29.86R
$$
ABBREVIATIONS USED IN REMARKS
   TC - TEMPERATURES IN CELSIUS
  WCI - WIND CHILL INDEX
   HX - HEAT INDEX
  VSB - VISIBILITY
$$


USA.gov is the U.S. government's official web portal to all federal, state and local government web resources and services.